Total_Precipitation_Accumulation
2.59 2.63 2.48 2.52 2.48 2.71 3.15 3.70 3.62 3.80 3.74 3.37 2.88 2.72 2.75 2.58 2.55 2.49 2.11 2.18 2.42 2.47 2.53 2.56 2.52 2.47 2.49 2.40 2.20 2.01 1.78 1.64 1.43 1.16 0.98 0.92 1.00 0.98 0.83 0.72 0.65 0.55 0.47
2.39 2.36 2.33 2.53 2.58 2.51 2.67 3.11 3.28 3.66 3.64 3.26 2.72 2.50 2.46 2.51 2.40 2.38 2.13 2.17 2.33 2.19 2.23 2.55 2.81 2.92 2.83 2.67 2.50 2.29 2.04 1.85 1.60 1.26 1.10 1.01 0.87 0.86 0.90 0.79 0.69 0.60 0.49
2.09 2.06 2.16 2.18 2.26 2.17 2.25 2.47 2.70 2.96 2.93 2.79 2.70 2.58 2.46 2.37 2.20 2.23 2.27 2.19 1.94 2.04 2.19 2.36 2.61 2.79 2.97 3.09 2.99 2.73 2.44 2.04 1.69 1.36 1.11 0.94 0.83 0.72 0.70 0.71 0.69 0.62 0.49
1.63 1.71 1.74 1.70 1.72 1.60 1.73 2.07 2.15 2.42 2.64 2.69 2.79 2.56 2.40 2.44 2.23 2.22 2.19 2.20 2.21 1.93 2.21 2.32 2.39 2.44 2.80 3.15 3.27 3.29 2.91 2.38 1.94 1.63 1.31 1.04 0.87 0.73 0.61 0.58 0.62 0.63 0.51
1.41 1.55 1.66 1.70 1.44 1.44 1.53 1.42 1.82 2.06 2.32 2.41 2.09 2.21 2.05 2.08 1.97 1.74 1.79 1.72 1.96 1.97 2.11 2.07 2.17 2.20 2.53 3.22 3.71 3.91 3.67 3.02 2.39 2.03 1.79 1.47 1.23 0.98 0.76 0.64 0.58 0.56 0.50
1.47 1.64 1.50 1.48 1.35 1.56 1.75 1.83 2.11 2.05 2.00 2.06 1.73 1.92 1.79 1.63 1.63 1.57 1.45 1.53 1.64 1.55 1.81 2.02 2.08 1.85 2.15 2.82 3.45 3.83 3.98 3.78 3.22 2.64 2.36 2.14 1.92 1.50 1.08 0.86 0.73 0.65 0.58
1.60 1.79 1.56 1.82 1.61 1.60 1.69 1.72 1.87 1.86 1.71 1.67 2.01 2.16 1.71 1.33 1.34 1.22 1.19 1.41 1.47 1.51 1.80 2.09 2.18 2.17 1.97 1.86 2.10 2.72 3.46 4.08 4.10 3.49 3.03 2.76 2.57 2.05 1.45 1.21 1.07 0.88 0.77
1.51 1.46 1.75 1.62 1.64 1.76 1.79 1.85 1.97 1.98 1.77 1.72 2.04 2.39 2.11 2.00 1.78 1.07 1.14 1.31 1.40 1.61 1.69 1.71 1.92 2.20 1.98 2.09 1.60 1.59 2.34 3.09 3.90 3.97 3.50 3.07 2.89 2.50 1.93 1.60 1.36 1.18 1.06
1.34 1.41 1.46 1.51 1.73 1.57 1.84 2.04 1.99 2.05 2.05 1.89 1.90 2.27 2.31 2.24 1.89 1.45 1.17 1.15 1.32 1.67 1.71 1.76 1.66 1.84 2.01 2.25 2.14 1.67 1.72 1.96 2.79 3.74 3.92 3.41 2.86 2.48 2.20 2.04 1.85 1.54 1.39
1.31 1.32 1.34 1.54 1.73 1.56 1.96 1.65 1.74 1.98 2.11 1.95 1.86 1.73 1.78 1.96 2.09 1.96 1.59 1.27 1.26 1.44 1.58 1.50 1.50 1.71 1.87 1.98 2.04 1.57 1.27 1.29 1.94 2.95 3.59 3.60 3.14 2.64 2.30 2.27 2.41 2.26 1.89
1.43 1.25 1.35 1.53 1.61 1.55 1.69 1.75 2.03 1.94 1.88 1.87 1.87 1.89 1.95 1.85 1.67 1.79 1.81 1.69 1.53 1.22 1.13 1.21 1.34 1.51 1.58 1.78 2.07 1.64 1.27 1.28 1.44 1.80 2.27 2.68 2.86 2.71 2.49 2.56 2.92 3.16 2.95
1.46 1.36 1.44 1.55 1.54 1.49 1.60 1.67 1.84 1.83 1.91 1.98 1.83 1.73 1.86 1.79 1.70 1.73 1.56 1.49 1.51 1.13 0.98 0.99 1.10 1.32 1.44 1.62 1.62 1.40 1.40 1.59 1.58 1.49 1.50 1.67 2.01 2.28 2.38 2.53 2.86 3.34 3.60
1.32 1.35 1.47 1.68 1.62 1.63 1.65 1.81 1.82 1.76 1.84 1.88 1.73 1.61 1.57 1.45 1.55 1.67 1.72 1.49 1.36 1.05 1.07 0.97 1.02 1.13 1.15 1.52 1.82 1.81 1.60 1.67 1.57 1.48 1.47 1.45 1.55 1.74 1.84 2.01 2.36 2.77 3.21
1.40 1.34 1.46 1.51 1.54 1.62 1.64 1.99 1.79 1.67 1.73 1.70 1.53 1.73 1.64 1.34 1.38 1.51 1.69 1.85 1.65 1.34 1.32 1.19 1.14 1.21 1.26 1.48 1.77 1.93 1.60 1.56 1.38 1.29 1.26 1.24 1.25 1.32 1.42 1.51 1.62 1.79 2.03
1.51 1.46 1.39 1.41 1.49 1.63 1.78 1.92 1.80 1.79 1.82 1.63 1.55 1.70 1.58 1.40 1.36 1.32 1.56 1.88 2.05 1.83 1.61 1.46 1.39 1.39 1.43 1.47 1.68 1.58 1.60 1.58 1.42 1.28 1.16 1.09 1.07 1.04 1.04 1.11 1.19 1.22 1.26
1.40 1.46 1.47 1.44 1.53 1.61 1.77 1.90 1.90 1.99 2.02 1.84 1.73 1.73 1.62 1.48 1.55 1.40 1.46 1.74 1.96 2.09 1.86 1.39 1.42 1.42 1.52 1.40 1.61 1.53 1.59 1.60 1.41 1.28 1.17 1.10 1.04 1.01 1.00 1.02 1.07 1.15 1.19
1.43 1.45 1.50 1.54 1.56 1.61 1.77 1.87 1.77 1.97 2.08 2.11 1.92 1.83 1.75 1.75 1.74 1.60 1.62 1.72 1.80 2.02 1.94 1.55 1.50 1.64 1.74 1.64 1.69 1.67 1.58 1.59 1.44 1.36 1.18 1.09 1.04 1.00 1.01 1.00 1.00 1.00 1.05
1.56 1.55 1.59 1.69 1.67 1.70 1.80 1.77 1.64 1.72 1.90 2.08 2.26 2.31 2.09 2.01 1.97 1.82 1.79 1.76 1.80 1.97 1.99 1.85 1.75 1.82 1.85 1.79 1.76 1.59 1.37 1.28 1.31 1.42 1.32 1.18 1.10 1.03 0.98 0.97 0.97 0.96 0.96
1.79 1.80 1.84 1.79 1.81 1.84 1.79 1.71 1.69 1.74 1.85 1.92 2.10 2.28 2.28 2.38 2.14 2.08 1.99 1.90 1.86 1.84 1.99 1.91 1.77 1.96 1.98 1.96 1.86 1.52 1.38 1.39 1.25 1.43 1.41 1.21 1.08 1.03 0.97 0.92 0.90 0.90 0.90
1.96 1.95 1.97 1.91 1.88 1.93 1.90 1.85 1.82 1.80 1.85 1.85 1.87 1.93 2.07 2.32 2.30 2.29 2.15 2.13 2.14 2.12 2.19 2.11 2.01 2.11 2.29 2.32 2.15 1.77 1.61 1.53 1.40 1.25 1.34 1.22 1.14 1.08 1.00 0.94 0.90 0.87 0.86
2.07 2.17 2.13 2.04 2.02 2.03 1.89 1.99 2.15 2.12 2.17 2.01 1.91 1.85 1.83 2.07 2.16 2.17 1.96 2.02 2.19 2.24 2.27 2.24 2.21 2.28 2.33 2.45 2.17 1.92 1.75 1.70 1.61 1.43 1.35 1.18 1.14 1.08 1.09 1.10 1.05 0.97 0.90
2.38 2.27 2.17 2.18 2.16 1.98 2.10 2.17 2.08 2.13 2.28 2.27 2.14 2.07 1.96 1.92 1.91 1.94 1.97 2.01 2.08 2.08 2.12 2.16 2.13 2.17 2.23 2.34 2.45 2.27 2.02 1.85 1.67 1.49 1.51 1.34 1.26 1.20 1.09 1.01 1.12 1.09 1.00
2.42 2.30 2.28 2.29 2.22 2.26 2.22 1.99 1.85 1.87 1.93 2.02 2.09 2.07 1.87 1.74 1.88 1.82 1.98 2.00 1.87 1.81 1.79 1.88 1.91 1.94 2.32 2.58 2.81 2.52 2.27 2.06 1.81 1.67 1.63 1.41 1.30 1.21 1.08 1.04 1.15 1.02 0.95
2.37 2.33 2.29 2.17 2.10 2.05 2.05 1.83 1.80 1.74 1.70 1.67 1.78 1.87 1.84 1.76 1.77 1.84 1.79 1.60 1.48 1.47 1.50 1.43 1.47 1.68 2.05 2.53 2.78 2.78 2.72 2.47 2.18 1.82 1.61 1.40 1.18 1.11 1.05 1.04 1.15 1.09 0.99
2.28 2.16 2.05 2.00 1.94 1.99 2.13 1.92 1.83 1.71 1.73 1.62 1.61 1.60 1.60 1.50 1.59 1.64 1.55 1.39 1.28 1.25 1.30 1.31 1.30 1.45 1.71 2.04 2.41 2.57 2.48 2.28 1.93 1.56 1.40 1.28 1.13 1.14 1.10 1.02 1.04 1.19 1.11
2.48 2.42 2.27 2.16 2.09 2.05 2.18 1.93 1.78 1.66 1.71 1.68 1.67 1.67 1.72 1.53 1.43 1.33 1.26 1.27 1.14 1.06 1.15 1.14 1.13 1.19 1.30 1.56 1.97 2.06 2.05 2.06 1.84 1.57 1.29 1.27 1.18 1.29 1.22 1.03 0.97 1.03 1.08